Time,TemperatureF,DewpointF,PressureIn,WindDirection,WindDirectionDegrees,WindSpeedMPH,WindSpeedGustMPH,Humidity,HourlyPrecipIn,Conditions,Clouds,dailyrainin,SoftwareType,DateUTC
2013-05-11 00:03:00,45.2,44.1,29.98,ESE,121,0.9,1.1,96,0.00,RA,,0.00,WeatherDisplay:10.37,2013-05-11 05:03:00,
2013-05-11 00:08:00,45.1,44.0,29.97,ESE,115,1.8,2.3,96,0.00,RA,,0.00,WeatherDisplay:10.37,2013-05-11 05:08:00,
2013-05-11 00:13:00,45.1,44.3,29.97,ESE,113,1.8,2.3,97,0.00,,,0.00,WeatherDisplay:10.37,2013-05-11 05:13:00,
2013-05-11 00:18:00,45.2,44.4,29.97,SE,133,0.0,0.0,97,0.00,,,0.00,WeatherDisplay:10.37,2013-05-11 05:18:00,
2013-05-11 00:23:00,44.9,43.8,29.98,WNW,286,2.7,3.5,96,0.00,,,0.00,WeatherDisplay:10.37,2013-05-11 05:23:00,
2013-05-11 00:28:00,44.9,44.1,29.98,WNW,292,2.6,3.5,97,0.00,,,0.00,WeatherDisplay:10.37,2013-05-11 05:28:00,
2013-05-11 00:33:00,45.3,44.5,29.98,WNW,294,2.2,3.5,97,0.00,,,0.00,WeatherDisplay:10.37,2013-05-11 05:33:00,
2013-05-11 00:38:00,44.9,43.8,29.98,NW,307,1.8,2.3,96,0.00,,,0.00,WeatherDisplay:10.37,2013-05-11 05:38:00,
2013-05-11 00:43:00,44.7,43.9,29.98,NW,309,1.8,2.3,97,0.00,,,0.00,WeatherDisplay:10.37,2013-05-11 05:43:00,
2013-05-11 00:48:00,44.7,43.9,29.98,WNW,302,2.7,3.5,97,0.00,,,0.00,WeatherDisplay:10.37,2013-05-11 05:48:00,
2013-05-11 00:53:00,44.8,44.0,29.98,NNW,331,1.4,2.3,97,0.00,,,0.00,WeatherDisplay:10.37,2013-05-11 05:53:00,
2013-05-11 00:58:00,44.8,44.0,29.98,WNW,302,1.0,1.1,97,0.00,,,0.00,WeatherDisplay:10.37,2013-05-11 05:58:00,
2013-05-11 01:03:00,44.4,43.6,29.98,WNW,285,1.4,2.3,97,0.00,,,0.00,WeatherDisplay:10.37,2013-05-11 06:03:00,
2013-05-11 01:08:00,44.3,43.5,29.98,WNW,283,2.0,2.3,97,0.00,,,0.00,WeatherDisplay:10.37,2013-05-11 06:08:00,
2013-05-11 01:13:00,44.3,43.5,29.98,West,281,1.0,1.1,97,0.00,,,0.00,WeatherDisplay:10.37,2013-05-11 06:13:00,
2013-05-11 01:18:00,44.1,43.3,29.98,West,281,0.0,0.0,97,0.00,,,0.00,WeatherDisplay:10.37,2013-05-11 06:18:00,
2013-05-11 01:23:00,43.9,43.1,29.98,West,281,0.0,0.0,97,0.00,,,0.00,WeatherDisplay:10.37,2013-05-11 06:23:00,
2013-05-11 01:28:00,43.9,43.1,29.97,WSW,252,0.2,1.1,97,0.00,,,0.00,WeatherDisplay:10.37,2013-05-11 06:28:00,
2013-05-11 01:33:00,43.8,43.0,29.97,WSW,252,0.0,1.1,97,0.00,,,0.00,WeatherDisplay:10.37,2013-05-11 06:33:00,
2013-05-11 01:38:00,43.7,42.9,29.98,WSW,252,1.0,1.1,97,0.00,,,0.00,WeatherDisplay:10.37,2013-05-11 06:38:00,
2013-05-11 01:44:00,43.6,42.8,29.97,WSW,243,1.0,1.1,97,0.00,,,0.00,WeatherDisplay:10.37,2013-05-11 06:44:00,
2013-05-11 01:49:00,43.7,43.2,29.97,WSW,243,1.1,2.3,98,0.00,,,0.00,WeatherDisplay:10.37,2013-05-11 06:49:00,
2013-05-11 01:54:00,43.9,43.4,29.97,SW,235,1.1,2.3,98,0.00,,,0.00,WeatherDisplay:10.37,2013-05-11 06:54:00,
2013-05-11 01:59:00,44.0,43.5,29.96,SW,219,1.9,2.3,98,0.00,,,0.00,WeatherDisplay:10.37,2013-05-11 06:59:00,
2013-05-11 02:04:00,44.1,43.6,29.96,SW,231,1.8,2.3,98,0.00,,,0.00,WeatherDisplay:10.37,2013-05-11 07:04:00,
2013-05-11 02:09:00,44.4,43.9,29.96,SW,222,2.3,2.3,98,0.00,,,0.00,WeatherDisplay:10.37,2013-05-11 07:09:00,
2013-05-11 02:14:00,44.9,44.4,29.96,South,183,2.7,3.5,98,0.00,,,0.00,WeatherDisplay:10.37,2013-05-11 07:14:00,
2013-05-11 02:19:00,44.9,44.4,29.96,SSE,165,3.5,4.0,98,0.00,,,0.00,WeatherDisplay:10.37,2013-05-11 07:19:00,
2013-05-11 02:24:00,44.6,44.1,29.96,South,179,3.0,5.0,98,0.00,,,0.00,WeatherDisplay:10.37,2013-05-11 07:24:00,
2013-05-11 02:29:00,44.5,44.0,29.96,South,182,3.2,3.5,98,0.00,,,0.00,WeatherDisplay:10.37,2013-05-11 07:29:00,
2013-05-11 02:34:00,44.4,43.9,29.96,SW,219,2.0,3.0,98,0.00,,,0.00,WeatherDisplay:10.37,2013-05-11 07:34:00,
2013-05-11 02:39:00,44.4,43.9,29.96,SSW,212,2.2,3.5,98,0.00,,,0.00,WeatherDisplay:10.37,2013-05-11 07:39:00,
2013-05-11 02:44:00,44.5,44.0,29.96,SSW,208,3.6,3.6,98,0.00,,,0.00,WeatherDisplay:10.37,2013-05-11 07:44:00,
2013-05-11 02:49:00,44.7,44.2,29.96,SSW,210,2.6,3.5,98,0.00,,,0.00,WeatherDisplay:10.37,2013-05-11 07:49:00,
2013-05-11 02:54:00,44.9,44.4,29.96,SSW,212,3.3,3.5,98,0.00,,,0.00,WeatherDisplay:10.37,2013-05-11 07:54:00,
2013-05-11 02:59:00,45.0,44.5,29.96,South,191,2.7,3.5,98,0.00,,,0.00,WeatherDisplay:10.37,2013-05-11 07:59:00,
2013-05-11 03:04:00,44.9,44.4,29.96,South,184,3.3,3.5,98,0.00,,,0.00,WeatherDisplay:10.37,2013-05-11 08:04:00,
2013-05-11 03:09:00,44.8,44.0,29.95,SSE,165,3.6,4.0,97,0.00,,,0.00,WeatherDisplay:10.37,2013-05-11 08:09:00,
2013-05-11 03:14:00,44.7,43.9,29.95,South,170,3.4,3.5,97,0.00,,,0.00,WeatherDisplay:10.37,2013-05-11 08:14:00,
2013-05-11 03:19:00,44.7,43.9,29.95,SSW,204,2.7,3.5,97,0.00,,,0.00,WeatherDisplay:10.37,2013-05-11 08:19:00,
2013-05-11 03:24:00,44.7,43.9,29.95,South,183,4.1,4.6,97,0.00,,,0.00,WeatherDisplay:10.37,2013-05-11 08:24:00,
2013-05-11 03:29:00,44.9,44.4,29.95,SSW,199,4.5,5.8,98,0.00,,,0.00,WeatherDisplay:10.37,2013-05-11 08:29:00,
2013-05-11 03:34:00,44.9,44.4,29.95,SSW,195,4.6,4.6,98,0.00,,,0.00,WeatherDisplay:10.37,2013-05-11 08:34:00,
2013-05-11 03:39:00,44.8,44.3,29.95,SSW,207,5.2,6.9,98,0.00,,,0.00,WeatherDisplay:10.37,2013-05-11 08:39:00,
2013-05-11 03:44:00,45.1,44.6,29.95,SSW,201,6.0,6.9,98,0.00,,,0.00,WeatherDisplay:10.37,2013-05-11 08:44:00,
2013-05-11 03:49:00,45.2,44.7,29.95,SSW,197,7.2,8.1,98,0.00,,,0.00,WeatherDisplay:10.37,2013-05-11 08:49:00,
2013-05-11 03:54:00,45.1,44.6,29.95,SW,225,5.4,8.0,98,0.00,,,0.00,WeatherDisplay:10.37,2013-05-11 08:54:00,
2013-05-11 03:59:00,45.1,44.3,29.95,South,181,6.1,6.9,97,0.00,,,0.00,WeatherDisplay:10.37,2013-05-11 08:59:00,
2013-05-11 04:04:00,45.2,44.7,29.95,SW,226,5.7,7.0,98,0.00,,,0.00,WeatherDisplay:10.37,2013-05-11 09:04:00,
2013-05-11 04:09:00,45.3,44.8,29.95,SSW,201,5.8,8.1,98,0.00,,,0.00,WeatherDisplay:10.37,2013-05-11 09:09:00,
2013-05-11 04:14:00,45.3,44.5,29.94,SSW,205,6.6,9.2,97,0.00,,,0.00,WeatherDisplay:10.37,2013-05-11 09:14:00,
2013-05-11 04:20:00,45.3,44.5,29.94,SSW,198,5.3,6.0,97,0.00,,,0.00,WeatherDisplay:10.37,2013-05-11 09:20:00,
2013-05-11 04:25:00,45.2,44.4,29.94,SSW,195,5.2,6.9,97,0.00,,,0.00,WeatherDisplay:10.37,2013-05-11 09:25:00,
2013-05-11 04:30:00,45.1,44.3,29.94,South,188,6.0,6.9,97,0.00,,,0.00,WeatherDisplay:10.37,2013-05-11 09:30:00,
2013-05-11 04:35:00,44.9,44.1,29.94,SSW,200,5.8,6.0,97,0.00,,,0.00,WeatherDisplay:10.37,2013-05-11 09:35:00,
2013-05-11 04:40:00,44.8,44.0,29.94,SSW,195,5.2,6.9,97,0.00,,,0.00,WeatherDisplay:10.37,2013-05-11 09:40:00,
2013-05-11 04:45:00,44.8,44.0,29.94,SW,214,5.4,6.0,97,0.00,,,0.00,WeatherDisplay:10.37,2013-05-11 09:45:00,
2013-05-11 04:50:00,45.1,44.6,29.93,SSW,200,5.9,8.1,98,0.00,,,0.00,WeatherDisplay:10.37,2013-05-11 09:50:00,
2013-05-11 04:55:00,45.5,45.0,29.93,SW,224,4.8,6.9,98,0.00,,,0.00,WeatherDisplay:10.37,2013-05-11 09:55:00,
2013-05-11 05:00:00,45.9,45.4,29.93,SW,229,6.0,8.1,98,0.00,,,0.00,WeatherDisplay:10.37,2013-05-11 10:00:00,
2013-05-11 05:05:00,46.1,45.6,29.93,SW,231,7.5,10.4,98,0.00,,,0.00,WeatherDisplay:10.37,2013-05-11 10:05:00,
2013-05-11 05:10:00,46.0,45.2,29.93,SSW,212,6.2,7.0,97,0.00,,,0.00,WeatherDisplay:10.37,2013-05-11 10:10:00,
2013-05-11 05:15:00,45.9,45.1,29.93,SW,231,6.5,9.2,97,0.00,,,0.00,WeatherDisplay:10.37,2013-05-11 10:15:00,
2013-05-11 05:20:00,45.7,44.9,29.92,SW,225,6.0,12.0,97,0.00,CLR,,0.00,WeatherDisplay:10.37,2013-05-11 10:20:00,
2013-05-11 05:25:00,45.6,44.8,29.92,SW,227,6.0,8.0,97,0.00,CLR,,0.00,WeatherDisplay:10.37,2013-05-11 10:25:00,
2013-05-11 05:30:00,45.4,44.6,29.92,SW,218,6.5,8.1,97,0.00,CLR,,0.00,WeatherDisplay:10.37,2013-05-11 10:30:00,
2013-05-11 05:35:00,45.4,44.6,29.92,SW,222,7.0,9.0,97,0.00,CLR,,0.00,WeatherDisplay:10.37,2013-05-11 10:35:00,
2013-05-11 05:40:00,45.3,44.5,29.92,SW,230,6.0,8.0,97,0.00,CLR,,0.00,WeatherDisplay:10.37,2013-05-11 10:40:00,
2013-05-11 05:45:00,45.1,44.3,29.92,SW,219,8.0,11.5,97,0.00,CLR,,0.00,WeatherDisplay:10.37,2013-05-11 10:45:00,
2013-05-11 05:50:00,45.1,44.3,29.92,SSW,210,9.1,12.7,97,0.01,RA,,0.01,WeatherDisplay:10.37,2013-05-11 10:50:00,
2013-05-11 05:55:00,45.2,44.7,29.92,SW,221,8.4,10.4,98,0.01,RA,,0.01,WeatherDisplay:10.37,2013-05-11 10:55:00,
2013-05-11 06:00:00,45.2,44.7,29.91,WSW,238,7.9,9.2,98,0.01,CLR,,0.01,WeatherDisplay:10.37,2013-05-11 11:00:00,
2013-05-11 06:05:00,45.3,44.8,29.91,SW,228,7.9,10.4,98,0.01,,,0.01,WeatherDisplay:10.37,2013-05-11 11:05:00,
2013-05-11 06:10:00,45.4,44.9,29.91,SW,221,8.1,11.5,98,0.01,,,0.01,WeatherDisplay:10.37,2013-05-11 11:10:00,
2013-05-11 06:15:00,45.5,45.0,29.91,SW,221,8.1,10.4,98,0.01,,,0.01,WeatherDisplay:10.37,2013-05-11 11:15:00,
2013-05-11 06:20:00,45.7,45.2,29.91,SW,235,8.3,11.5,98,0.01,,,0.01,WeatherDisplay:10.37,2013-05-11 11:20:00,
2013-05-11 06:25:00,45.9,45.4,29.90,SW,228,7.8,10.4,98,0.01,,,0.01,WeatherDisplay:10.37,2013-05-11 11:25:00,
2013-05-11 06:30:00,46.2,45.7,29.91,SW,225,7.6,9.2,98,0.01,,,0.01,WeatherDisplay:10.37,2013-05-11 11:30:00,
2013-05-11 06:35:00,46.5,46.0,29.91,SW,233,9.4,11.5,98,0.01,,,0.01,WeatherDisplay:10.37,2013-05-11 11:35:00,
2013-05-11 06:40:00,46.9,46.4,29.90,SW,231,9.6,12.7,98,0.01,,,0.01,WeatherDisplay:10.37,2013-05-11 11:40:00,
2013-05-11 06:45:00,47.3,46.8,29.90,WSW,248,10.2,11.5,98,0.01,,,0.01,WeatherDisplay:10.37,2013-05-11 11:45:00,
2013-05-11 06:50:00,47.8,47.3,29.91,WSW,240,10.5,12.7,98,0.00,,,0.01,WeatherDisplay:10.37,2013-05-11 11:50:00,
2013-05-11 06:55:00,48.1,47.3,29.91,SW,235,9.2,12.7,97,0.00,,,0.01,WeatherDisplay:10.37,2013-05-11 11:55:00,
2013-05-11 07:00:00,48.4,47.6,29.90,WSW,245,9.1,12.7,97,0.00,,,0.01,WeatherDisplay:10.37,2013-05-11 12:00:00,
2013-05-11 07:05:00,48.8,48.0,29.91,WSW,257,8.4,10.4,97,0.00,,,0.01,WeatherDisplay:10.37,2013-05-11 12:05:00,
2013-05-11 07:10:00,48.9,47.8,29.90,WSW,238,7.9,11.5,96,0.00,,,0.01,WeatherDisplay:10.37,2013-05-11 12:10:00,
2013-05-11 07:15:00,49.1,48.0,29.90,West,266,6.8,9.2,96,0.00,,,0.01,WeatherDisplay:10.37,2013-05-11 12:15:00,
2013-05-11 07:20:00,49.3,48.2,29.91,WNW,286,7.7,9.2,96,0.00,,,0.01,WeatherDisplay:10.37,2013-05-11 12:20:00,
2013-05-11 07:26:00,49.5,48.4,29.91,West,275,5.5,6.9,96,0.00,,,0.01,WeatherDisplay:10.37,2013-05-11 12:26:00,
2013-05-11 07:31:00,49.6,48.5,29.90,West,262,6.6,9.2,96,0.00,,,0.01,WeatherDisplay:10.37,2013-05-11 12:31:00,
2013-05-11 07:36:00,49.9,48.8,29.89,SW,226,7.7,11.5,96,0.00,,,0.01,WeatherDisplay:10.37,2013-05-11 12:36:00,
2013-05-11 07:41:00,50.5,49.4,29.91,WSW,255,8.5,11.0,96,0.00,,,0.01,WeatherDisplay:10.37,2013-05-11 12:41:00,
2013-05-11 07:46:00,51.0,49.9,29.90,West,275,8.2,11.5,96,0.00,,,0.01,WeatherDisplay:10.37,2013-05-11 12:46:00,
2013-05-11 07:51:00,51.4,50.0,29.90,West,271,10.1,13.8,95,0.00,,,0.01,WeatherDisplay:10.37,2013-05-11 12:51:00,
2013-05-11 07:56:00,51.7,50.3,29.90,WNW,285,11.2,13.8,95,0.00,,,0.01,WeatherDisplay:10.37,2013-05-11 12:56:00,
2013-05-11 08:01:00,51.8,50.1,29.90,West,266,11.7,15.0,94,0.00,CLR,,0.01,WeatherDisplay:10.37,2013-05-11 13:01:00,
2013-05-11 08:06:00,52.0,50.3,29.90,WNW,285,10.3,12.0,94,0.00,CLR,,0.01,WeatherDisplay:10.37,2013-05-11 13:06:00,
2013-05-11 08:11:00,52.1,50.4,29.90,West,276,8.9,11.5,94,0.00,CLR,,0.01,WeatherDisplay:10.37,2013-05-11 13:11:00,
2013-05-11 08:16:00,52.2,50.5,29.90,WNW,290,8.9,12.7,94,0.00,CLR,,0.01,WeatherDisplay:10.37,2013-05-11 13:16:00,
2013-05-11 08:21:00,52.3,50.6,29.90,WNW,296,9.2,12.7,94,0.00,CLR,,0.01,WeatherDisplay:10.37,2013-05-11 13:21:00,
2013-05-11 08:26:00,52.4,50.7,29.90,WNW,287,10.3,11.5,94,0.00,CLR,,0.01,WeatherDisplay:10.37,2013-05-11 13:26:00,
2013-05-11 08:31:00,53.1,51.4,29.90,WNW,295,10.2,12.7,94,0.00,CLR,,0.01,WeatherDisplay:10.37,2013-05-11 13:31:00,
2013-05-11 08:36:00,53.7,51.7,29.90,WNW,302,12.8,15.0,93,0.00,CLR,,0.01,WeatherDisplay:10.37,2013-05-11 13:36:00,
2013-05-11 08:41:00,54.4,51.8,29.90,NW,312,12.3,14.0,91,0.00,CLR,,0.01,WeatherDisplay:10.37,2013-05-11 13:41:00,
2013-05-11 08:46:00,54.9,51.4,29.90,NW,307,13.4,17.3,88,0.00,CLR,,0.01,WeatherDisplay:10.37,2013-05-11 13:46:00,
2013-05-11 08:51:00,55.2,51.4,29.90,North,351,14.9,21.9,87,0.00,CLR,,0.01,WeatherDisplay:10.37,2013-05-11 13:51:00,
2013-05-11 08:56:00,55.4,51.3,29.90,WNW,284,13.9,17.3,86,0.00,CLR,,0.01,WeatherDisplay:10.37,2013-05-11 13:56:00,
2013-05-11 09:01:00,55.3,49.9,29.90,NW,305,14.2,19.0,82,0.00,CLR,,0.01,WeatherDisplay:10.37,2013-05-11 14:01:00,
2013-05-11 09:07:00,55.2,48.5,29.90,NW,324,14.7,17.3,78,0.00,CLR,,0.01,WeatherDisplay:10.37,2013-05-11 14:07:00,
2013-05-11 09:12:00,55.3,49.9,29.90,NW,309,8.2,15.0,82,0.00,CLR,,0.01,WeatherDisplay:10.37,2013-05-11 14:12:00,
2013-05-11 09:17:00,55.5,49.8,29.91,NW,307,16.4,19.6,81,0.00,CLR,,0.01,WeatherDisplay:10.37,2013-05-11 14:17:00,
2013-05-11 09:22:00,55.3,48.9,29.91,WNW,297,16.1,19.6,79,0.00,CLR,,0.01,WeatherDisplay:10.37,2013-05-11 14:22:00,
2013-05-11 09:27:00,55.2,47.8,29.91,WNW,302,11.7,23.0,76,0.00,CLR,,0.01,WeatherDisplay:10.37,2013-05-11 14:27:00,
2013-05-11 09:32:00,55.4,48.7,29.91,NW,311,15.4,19.6,78,0.00,CLR,,0.01,WeatherDisplay:10.37,2013-05-11 14:32:00,
2013-05-11 09:37:00,55.1,48.4,29.91,WNW,302,16.8,19.6,78,0.00,CLR,,0.01,WeatherDisplay:10.37,2013-05-11 14:37:00,
2013-05-11 09:42:00,55.3,48.6,29.91,NW,315,15.0,18.4,78,0.00,CLR,,0.01,WeatherDisplay:10.37,2013-05-11 14:42:00,
2013-05-11 09:47:00,55.2,47.8,29.91,NW,322,10.7,18.4,76,0.00,CLR,,0.01,WeatherDisplay:10.37,2013-05-11 14:47:00,
2013-05-11 09:52:00,55.5,48.1,29.92,NNW,334,15.5,23.0,76,0.00,CLR,,0.01,WeatherDisplay:10.37,2013-05-11 14:52:00,
2013-05-11 09:57:00,55.4,47.6,29.92,NW,311,17.6,20.7,75,0.00,CLR,,0.01,WeatherDisplay:10.37,2013-05-11 14:57:00,
2013-05-11 10:02:00,55.6,48.2,29.92,NW,307,13.6,18.4,76,0.00,CLR,,0.01,WeatherDisplay:10.37,2013-05-11 15:02:00,
2013-05-11 10:07:00,55.7,45.7,29.92,WNW,297,18.0,26.5,69,0.00,CLR,,0.01,WeatherDisplay:10.37,2013-05-11 15:07:00,
2013-05-11 10:12:00,55.7,45.7,29.92,NW,307,16.0,18.4,69,0.00,CLR,,0.01,WeatherDisplay:10.37,2013-05-11 15:12:00,
2013-05-11 10:17:00,55.8,45.8,29.92,NNW,334,15.6,20.0,69,0.00,CLR,,0.01,WeatherDisplay:10.37,2013-05-11 15:17:00,
2013-05-11 10:22:00,56.0,46.0,29.92,NW,324,11.6,19.6,69,0.00,CLR,,0.01,WeatherDisplay:10.37,2013-05-11 15:22:00,
2013-05-11 10:27:00,56.1,46.4,29.93,NNW,337,13.2,19.0,70,0.00,CLR,,0.01,WeatherDisplay:10.37,2013-05-11 15:27:00,
2013-05-11 10:32:00,55.7,42.9,29.93,NW,323,15.9,18.4,62,0.00,CLR,,0.01,WeatherDisplay:10.37,2013-05-11 15:32:00,
2013-05-11 10:37:00,55.8,43.8,29.93,NNW,345,16.9,21.9,64,0.00,CLR,,0.01,WeatherDisplay:10.37,2013-05-11 15:37:00,
2013-05-11 10:42:00,55.7,41.1,29.93,NW,316,15.0,19.6,58,0.00,CLR,,0.01,WeatherDisplay:10.37,2013-05-11 15:42:00,
2013-05-11 10:47:00,56.1,42.0,29.94,NNE,12,15.1,19.6,59,0.00,CLR,,0.01,WeatherDisplay:10.37,2013-05-11 15:47:00,
2013-05-11 10:52:00,56.2,42.1,29.94,NE,45,12.8,17.3,59,0.00,CLR,,0.01,WeatherDisplay:10.37,2013-05-11 15:52:00,
2013-05-11 10:57:00,56.3,40.8,29.94,NW,313,17.4,21.9,56,0.00,CLR,,0.01,WeatherDisplay:10.37,2013-05-11 15:57:00,
2013-05-11 11:02:00,56.2,40.2,29.94,WNW,290,17.3,23.0,55,0.00,CLR,,0.01,WeatherDisplay:10.37,2013-05-11 16:02:00,
2013-05-11 11:07:00,56.3,39.9,29.94,NW,307,17.7,21.9,54,0.00,CLR,,0.01,WeatherDisplay:10.37,2013-05-11 16:07:00,
2013-05-11 11:12:00,56.5,39.1,29.95,NW,324,16.8,21.9,52,0.00,CLR,,0.01,WeatherDisplay:10.37,2013-05-11 16:12:00,
2013-05-11 11:17:00,56.5,37.0,29.95,NW,311,16.4,23.0,48,0.00,CLR,,0.01,WeatherDisplay:10.37,2013-05-11 16:17:00,
2013-05-11 11:22:00,56.7,35.6,29.95,NNW,338,16.4,24.2,45,0.00,CLR,,0.01,WeatherDisplay:10.37,2013-05-11 16:22:00,
2013-05-11 11:27:00,56.2,33.4,29.95,North,5,13.8,19.6,42,0.00,CLR,,0.01,WeatherDisplay:10.37,2013-05-11 16:27:00,
2013-05-11 11:32:00,56.6,36.0,29.95,WNW,290,16.6,23.0,46,0.00,CLR,,0.01,WeatherDisplay:10.37,2013-05-11 16:32:00,
2013-05-11 11:37:00,56.8,36.2,29.96,NW,304,15.1,19.6,46,0.00,CLR,,0.01,WeatherDisplay:10.37,2013-05-11 16:37:00,
2013-05-11 11:42:00,57.1,37.0,29.96,NW,321,15.9,21.9,47,0.00,CLR,,0.01,WeatherDisplay:10.37,2013-05-11 16:42:00,
2013-05-11 11:47:00,56.9,37.4,29.96,NE,51,13.7,21.0,48,0.00,CLR,,0.01,WeatherDisplay:10.37,2013-05-11 16:47:00,
2013-05-11 11:52:00,56.6,32.5,29.96,North,357,13.8,25.3,40,0.00,CLR,,0.01,WeatherDisplay:10.37,2013-05-11 16:52:00,
2013-05-11 11:57:00,57.5,39.0,29.96,North,3,11.1,17.3,50,0.00,CLR,,0.01,WeatherDisplay:10.37,2013-05-11 16:57:00,
2013-05-11 12:03:00,58.2,37.5,29.96,NNW,338,14.2,19.6,46,0.00,CLR,,0.01,WeatherDisplay:10.37,2013-05-11 17:03:00,
2013-05-11 12:08:00,57.8,36.6,29.96,NW,309,14.7,19.6,45,0.00,CLR,,0.01,WeatherDisplay:10.37,2013-05-11 17:08:00,
2013-05-11 12:13:00,57.8,38.8,29.96,WNW,302,12.4,19.6,49,0.00,CLR,,0.01,WeatherDisplay:10.37,2013-05-11 17:13:00,
2013-05-11 12:18:00,57.9,35.5,29.96,NW,314,19.1,29.9,43,0.00,CLR,,0.01,WeatherDisplay:10.37,2013-05-11 17:18:00,
2013-05-11 12:23:00,57.3,35.6,29.96,NW,309,15.8,21.0,44,0.00,CLR,,0.01,WeatherDisplay:10.37,2013-05-11 17:23:00,
2013-05-11 12:28:00,57.0,33.5,29.97,NNW,338,14.0,20.7,41,0.00,CLR,,0.01,WeatherDisplay:10.37,2013-05-11 17:28:00,
2013-05-11 12:33:00,57.1,34.2,29.97,East,101,14.0,17.3,42,0.00,CLR,,0.01,WeatherDisplay:10.37,2013-05-11 17:33:00,
2013-05-11 12:38:00,57.3,35.6,29.97,North,11,14.7,18.4,44,0.00,CLR,,0.01,WeatherDisplay:10.37,2013-05-11 17:38:00,
2013-05-11 12:43:00,57.6,35.2,29.97,NNE,18,10.0,19.6,43,0.00,CLR,,0.01,WeatherDisplay:10.37,2013-05-11 17:43:00,
2013-05-11 12:48:00,58.1,40.1,29.97,NNW,343,13.0,16.1,51,0.00,CLR,,0.01,WeatherDisplay:10.37,2013-05-11 17:48:00,
2013-05-11 12:53:00,58.2,35.8,29.97,NW,319,14.9,18.4,43,0.00,CLR,,0.01,WeatherDisplay:10.37,2013-05-11 17:53:00,
2013-05-11 12:58:00,57.7,34.1,29.97,NNW,340,14.1,20.7,41,0.00,CLR,,0.01,WeatherDisplay:10.37,2013-05-11 17:58:00,
2013-05-11 13:03:00,57.9,37.8,29.97,NW,316,16.7,23.0,47,0.00,CLR,,0.01,WeatherDisplay:10.37,2013-05-11 18:03:00,
2013-05-11 13:08:00,57.8,38.2,29.97,NW,307,15.6,24.0,48,0.00,CLR,,0.01,WeatherDisplay:10.37,2013-05-11 18:08:00,
2013-05-11 13:13:00,57.7,37.6,29.98,NW,317,20.1,24.2,47,0.00,CLR,,0.01,WeatherDisplay:10.37,2013-05-11 18:13:00,
2013-05-11 13:18:00,57.3,35.6,29.98,NW,310,16.7,23.0,44,0.00,CLR,,0.01,WeatherDisplay:10.37,2013-05-11 18:18:00,
2013-05-11 13:23:00,57.2,38.2,29.98,NE,49,15.5,18.4,49,0.00,CLR,,0.01,WeatherDisplay:10.37,2013-05-11 18:23:00,
2013-05-11 13:28:00,57.4,36.2,29.98,NW,312,14.1,19.6,45,0.00,CLR,,0.01,WeatherDisplay:10.37,2013-05-11 18:28:00,
2013-05-11 13:33:00,56.8,35.1,29.98,NNE,22,17.4,20.7,44,0.00,CLR,,0.01,WeatherDisplay:10.37,2013-05-11 18:33:00,
2013-05-11 13:38:00,57.2,36.0,29.98,NW,307,19.3,23.0,45,0.00,CLR,,0.01,WeatherDisplay:10.37,2013-05-11 18:38:00,
2013-05-11 13:43:00,57.5,36.9,29.99,NW,312,17.2,21.9,46,0.00,CLR,,0.01,WeatherDisplay:10.37,2013-05-11 18:43:00,
2013-05-11 13:48:00,57.2,36.0,29.99,NW,308,19.5,24.2,45,0.00,CLR,,0.01,WeatherDisplay:10.37,2013-05-11 18:48:00,
2013-05-11 13:53:00,57.7,37.6,29.99,NW,312,17.8,21.9,47,0.00,CLR,,0.01,WeatherDisplay:10.37,2013-05-11 18:53:00,
2013-05-11 13:58:00,57.0,35.9,29.99,SW,219,14.6,23.0,45,0.00,CLR,,0.01,WeatherDisplay:10.37,2013-05-11 18:58:00,
2013-05-11 14:03:00,57.6,35.8,29.99,NW,315,22.1,28.8,44,0.00,CLR,,0.01,WeatherDisplay:10.37,2013-05-11 19:03:00,
2013-05-11 14:08:00,56.7,35.6,30.00,NNW,330,16.3,23.0,45,0.00,CLR,,0.01,WeatherDisplay:10.37,2013-05-11 19:08:00,
2013-05-11 14:13:00,57.6,37.0,29.99,NW,312,15.8,20.7,46,0.00,CLR,,0.01,WeatherDisplay:10.37,2013-05-11 19:13:00,
2013-05-11 14:18:00,57.7,36.5,30.00,NNW,345,14.1,19.6,45,0.00,CLR,,0.01,WeatherDisplay:10.37,2013-05-11 19:18:00,
2013-05-11 14:23:00,58.0,37.9,29.99,NNW,335,20.6,26.5,47,0.00,CLR,,0.01,WeatherDisplay:10.37,2013-05-11 19:23:00,
2013-05-11 14:28:00,57.9,37.2,30.00,NW,307,15.9,19.6,46,0.00,CLR,,0.01,WeatherDisplay:10.37,2013-05-11 19:28:00,
2013-05-11 14:33:00,57.6,37.0,30.00,WNW,302,19.2,28.8,46,0.00,CLR,,0.01,WeatherDisplay:10.37,2013-05-11 19:33:00,
2013-05-11 14:38:00,58.1,35.1,30.00,North,6,20.4,27.6,42,0.00,CLR,,0.01,WeatherDisplay:10.37,2013-05-11 19:38:00,
2013-05-11 14:43:00,57.5,35.2,30.00,NNE,25,20.5,26.5,43,0.00,CLR,,0.01,WeatherDisplay:10.37,2013-05-11 19:43:00,
2013-05-11 14:48:00,56.0,36.0,30.01,NNW,341,13.1,17.3,47,0.00,CLR,,0.01,WeatherDisplay:10.37,2013-05-11 19:48:00,
2013-05-11 14:54:00,55.4,34.4,30.01,NW,311,14.9,23.0,45,0.00,CLR,,0.01,WeatherDisplay:10.37,2013-05-11 19:54:00,
2013-05-11 14:59:00,56.3,35.2,30.00,WNW,297,15.2,21.9,45,0.00,CLR,,0.01,WeatherDisplay:10.37,2013-05-11 19:59:00,
2013-05-11 15:04:00,56.8,33.3,30.01,NW,317,23.1,26.5,41,0.00,CLR,,0.01,WeatherDisplay:10.37,2013-05-11 20:04:00,
2013-05-11 15:09:00,57.4,33.3,30.00,NNE,20,15.6,24.2,40,0.00,CLR,,0.01,WeatherDisplay:10.37,2013-05-11 20:09:00,
2013-05-11 15:14:00,57.4,33.9,30.01,SSE,159,15.7,19.6,41,0.00,CLR,,0.01,WeatherDisplay:10.37,2013-05-11 20:14:00,
2013-05-11 15:19:00,55.9,33.7,30.01,North,356,15.6,28.8,43,0.00,CLR,,0.01,WeatherDisplay:10.37,2013-05-11 20:19:00,
2013-05-11 15:24:00,54.9,32.8,30.01,NW,304,17.9,20.7,43,0.00,CLR,,0.01,WeatherDisplay:10.37,2013-05-11 20:24:00,
2013-05-11 15:29:00,54.5,31.9,30.01,North,359,13.8,19.6,42,0.00,CLR,,0.01,WeatherDisplay:10.37,2013-05-11 20:29:00,
2013-05-11 15:34:00,54.5,34.7,30.01,NNW,333,12.8,18.4,47,0.00,CLR,,0.01,WeatherDisplay:10.37,2013-05-11 20:34:00,
2013-05-11 15:39:00,55.6,36.2,30.02,NW,318,11.5,16.1,48,0.00,CLR,,0.01,WeatherDisplay:10.37,2013-05-11 20:39:00,
2013-05-11 15:44:00,56.6,36.0,30.01,NW,326,11.8,18.4,46,0.00,CLR,,0.01,WeatherDisplay:10.37,2013-05-11 20:44:00,
2013-05-11 15:49:00,57.0,35.3,30.01,NNW,332,15.3,21.0,44,0.00,CLR,,0.01,WeatherDisplay:10.37,2013-05-11 20:49:00,
2013-05-11 15:54:00,56.4,30.4,30.01,NNW,328,18.2,26.5,37,0.00,CLR,,0.01,WeatherDisplay:10.37,2013-05-11 20:54:00,
2013-05-11 15:59:00,56.7,33.2,30.02,NW,316,15.2,19.6,41,0.00,CLR,,0.01,WeatherDisplay:10.37,2013-05-11 20:59:00,
2013-05-11 16:04:00,56.5,31.8,30.01,NNE,24,14.3,20.7,39,0.00,CLR,,0.01,WeatherDisplay:10.37,2013-05-11 21:04:00,
2013-05-11 16:09:00,56.6,34.3,30.02,WNW,301,13.7,23.0,43,0.00,CLR,,0.01,WeatherDisplay:10.37,2013-05-11 21:09:00,
2013-05-11 16:14:00,56.1,33.3,30.02,East,81,15.0,24.0,42,0.00,CLR,,0.01,WeatherDisplay:10.37,2013-05-11 21:14:00,
2013-05-11 16:19:00,56.4,32.4,30.03,NNE,26,16.1,26.5,40,0.00,CLR,,0.01,WeatherDisplay:10.37,2013-05-11 21:19:00,
2013-05-11 16:24:00,56.4,31.1,30.02,East,84,16.5,20.7,38,0.00,CLR,,0.01,WeatherDisplay:10.37,2013-05-11 21:24:00,
2013-05-11 16:29:00,56.8,32.7,30.02,NW,305,21.1,31.1,40,0.00,CLR,,0.01,WeatherDisplay:10.37,2013-05-11 21:29:00,
2013-05-11 16:34:00,57.3,32.5,30.03,WNW,287,18.7,24.2,39,0.00,CLR,,0.01,WeatherDisplay:10.37,2013-05-11 21:34:00,
2013-05-11 16:39:00,56.9,30.9,30.02,NW,312,20.6,23.0,37,0.00,CLR,,0.01,WeatherDisplay:10.37,2013-05-11 21:39:00,
2013-05-11 16:44:00,57.0,32.3,30.02,North,349,14.6,19.6,39,0.00,CLR,,0.01,WeatherDisplay:10.37,2013-05-11 21:44:00,
2013-05-11 16:50:00,57.2,31.8,30.02,WNW,295,14.5,19.6,38,0.00,CLR,,0.01,WeatherDisplay:10.37,2013-05-11 21:50:00,
2013-05-11 16:55:00,57.1,32.4,30.03,NW,314,15.6,21.9,39,0.00,CLR,,0.01,WeatherDisplay:10.37,2013-05-11 21:55:00,
2013-05-11 17:00:00,56.0,32.6,30.03,WNW,301,11.9,17.3,41,0.00,CLR,,0.01,WeatherDisplay:10.37,2013-05-11 22:00:00,
2013-05-11 17:05:00,56.9,32.2,30.03,NE,35,17.1,25.3,39,0.00,CLR,,0.01,WeatherDisplay:10.37,2013-05-11 22:05:00,
2013-05-11 17:10:00,56.1,31.5,30.03,WNW,302,18.0,21.9,39,0.00,CLR,,0.01,WeatherDisplay:10.37,2013-05-11 22:10:00,
2013-05-11 17:15:00,55.3,32.0,30.03,NNW,345,11.8,17.3,41,0.00,CLR,,0.01,WeatherDisplay:10.37,2013-05-11 22:15:00,
2013-05-11 17:20:00,54.3,32.8,30.04,NW,313,15.3,18.4,44,0.00,CLR,,0.01,WeatherDisplay:10.37,2013-05-11 22:20:00,
2013-05-11 17:25:00,55.4,32.1,30.04,NW,307,15.6,19.6,41,0.00,CLR,,0.01,WeatherDisplay:10.37,2013-05-11 22:25:00,
2013-05-11 17:30:00,55.0,32.3,30.03,NNW,341,13.2,20.7,42,0.00,CLR,,0.01,WeatherDisplay:10.37,2013-05-11 22:30:00,
2013-05-11 17:35:00,54.2,32.2,30.04,NW,309,11.5,18.4,43,0.00,CLR,,0.01,WeatherDisplay:10.37,2013-05-11 22:35:00,
2013-05-11 17:40:00,53.7,32.3,30.04,NW,311,9.5,15.0,44,0.00,CLR,,0.01,WeatherDisplay:10.37,2013-05-11 22:40:00,
2013-05-11 17:45:00,54.4,33.5,30.04,NW,308,14.4,17.3,45,0.00,CLR,,0.01,WeatherDisplay:10.37,2013-05-11 22:45:00,
2013-05-11 17:50:00,54.7,33.2,30.04,NW,319,8.7,19.6,44,0.00,CLR,,0.01,WeatherDisplay:10.37,2013-05-11 22:50:00,
2013-05-11 17:55:00,54.6,32.5,30.04,NW,312,9.1,19.6,43,0.00,CLR,,0.01,WeatherDisplay:10.37,2013-05-11 22:55:00,
2013-05-11 18:00:00,53.7,31.1,30.04,NE,45,15.7,19.6,42,0.00,CLR,,0.01,WeatherDisplay:10.37,2013-05-11 23:00:00,
2013-05-11 18:05:00,53.1,32.8,30.04,NE,45,12.0,14.0,46,0.00,CLR,,0.01,WeatherDisplay:10.37,2013-05-11 23:05:00,
2013-05-11 18:10:00,53.0,31.7,30.04,North,359,12.0,18.0,44,0.00,CLR,,0.01,WeatherDisplay:10.37,2013-05-11 23:10:00,
2013-05-11 18:15:00,53.4,32.0,30.04,NNW,340,13.0,17.0,44,0.00,CLR,,0.01,WeatherDisplay:10.37,2013-05-11 23:15:00,
2013-05-11 18:20:00,53.4,31.4,30.04,NW,316,11.4,18.4,43,0.00,CLR,,0.01,WeatherDisplay:10.37,2013-05-11 23:20:00,
2013-05-11 18:25:00,53.8,33.5,30.04,North,356,8.0,16.0,46,0.00,CLR,,0.01,WeatherDisplay:10.37,2013-05-11 23:25:00,
2013-05-11 18:30:00,53.9,31.3,30.04,NW,307,11.4,19.6,42,0.00,CLR,,0.01,WeatherDisplay:10.37,2013-05-11 23:30:00,
2013-05-11 18:35:00,53.8,31.8,30.04,WNW,293,13.1,18.4,43,0.00,CLR,,0.01,WeatherDisplay:10.37,2013-05-11 23:35:00,
2013-05-11 18:40:00,54.0,33.7,30.04,NW,307,9.7,16.0,46,0.00,CLR,,0.01,WeatherDisplay:10.37,2013-05-11 23:40:00,
2013-05-11 18:45:00,53.7,31.7,30.04,NNW,330,12.5,17.3,43,0.00,CLR,,0.01,WeatherDisplay:10.37,2013-05-11 23:45:00,
2013-05-11 18:50:00,53.3,32.5,30.04,NW,313,8.5,13.8,45,0.00,CLR,,0.01,WeatherDisplay:10.37,2013-05-11 23:50:00,
2013-05-11 18:55:00,53.2,30.1,30.04,ENE,58,13.9,19.6,41,0.00,CLR,,0.01,WeatherDisplay:10.37,2013-05-11 23:55:00,
2013-05-11 19:00:00,53.0,29.3,30.04,North,356,13.2,18.4,40,0.00,CLR,,0.01,WeatherDisplay:10.37,2013-05-12 00:00:00,
2013-05-11 19:05:00,52.9,28.6,30.04,NNE,33,14.3,18.0,39,0.00,CLR,,0.01,WeatherDisplay:10.37,2013-05-12 00:05:00,
2013-05-11 19:10:00,52.8,29.7,30.04,NNE,20,11.2,13.8,41,0.00,CLR,,0.01,WeatherDisplay:10.37,2013-05-12 00:10:00,
2013-05-11 19:15:00,52.5,30.0,30.05,NW,307,8.3,11.5,42,0.00,CLR,,0.01,WeatherDisplay:10.37,2013-05-12 00:15:00,
2013-05-11 19:21:00,52.2,30.4,30.05,North,350,13.4,16.1,43,0.00,CLR,,0.01,WeatherDisplay:10.37,2013-05-12 00:21:00,
2013-05-11 19:26:00,52.0,30.2,30.05,North,358,11.8,13.8,43,0.00,CLR,,0.01,WeatherDisplay:10.37,2013-05-12 00:26:00,
2013-05-11 19:31:00,51.7,31.0,30.06,NNE,33,9.4,11.5,45,0.00,CLR,,0.01,WeatherDisplay:10.37,2013-05-12 00:31:00,
2013-05-11 19:36:00,51.5,31.9,30.06,NNW,348,5.9,10.4,47,0.00,CLR,,0.01,WeatherDisplay:10.37,2013-05-12 00:36:00,
2013-05-11 19:41:00,51.2,32.2,30.06,NW,326,7.8,10.4,48,0.00,CLR,,0.01,WeatherDisplay:10.37,2013-05-12 00:41:00,
2013-05-11 19:46:00,51.0,31.5,30.06,NE,37,6.2,8.1,47,0.00,CLR,,0.01,WeatherDisplay:10.37,2013-05-12 00:46:00,
2013-05-11 19:51:00,50.8,32.3,30.06,NNE,23,6.5,11.5,49,0.00,CLR,,0.01,WeatherDisplay:10.37,2013-05-12 00:51:00,
2013-05-11 19:56:00,50.6,32.6,30.06,NNW,336,5.1,8.1,50,0.00,CLR,,0.01,WeatherDisplay:10.37,2013-05-12 00:56:00,
2013-05-11 20:01:00,50.0,32.1,30.06,NNW,343,4.4,5.8,50,0.00,CLR,,0.01,WeatherDisplay:10.37,2013-05-12 01:01:00,
2013-05-11 20:06:00,49.8,31.9,30.07,NE,44,4.7,6.9,50,0.00,CLR,,0.01,WeatherDisplay:10.37,2013-05-12 01:06:00,
2013-05-11 20:11:00,49.3,31.9,30.07,North,354,3.4,6.0,51,0.00,CLR,,0.01,WeatherDisplay:10.37,2013-05-12 01:11:00,
2013-05-11 20:16:00,48.8,31.5,30.07,NW,324,3.2,5.8,51,0.00,CLR,,0.01,WeatherDisplay:10.37,2013-05-12 01:16:00,
2013-05-11 20:21:00,48.7,30.9,30.07,NW,322,4.2,5.8,50,0.00,CLR,,0.01,WeatherDisplay:10.37,2013-05-12 01:21:00,
2013-05-11 20:27:00,48.5,30.7,30.07,NNE,12,4.4,6.9,50,0.00,CLR,,0.01,WeatherDisplay:10.37,2013-05-12 01:27:00,
2013-05-11 20:32:00,48.3,30.5,30.07,NNW,336,3.6,5.8,50,0.00,CLR,,0.01,WeatherDisplay:10.37,2013-05-12 01:32:00,
2013-05-11 20:37:00,48.1,30.3,30.07,NW,313,3.5,6.9,50,0.00,CLR,,0.01,WeatherDisplay:10.37,2013-05-12 01:37:00,
2013-05-11 20:42:00,47.9,30.1,30.07,NW,326,4.9,6.0,50,0.00,,,0.01,WeatherDisplay:10.37,2013-05-12 01:42:00,
2013-05-11 20:47:00,47.8,29.5,30.08,NNW,332,6.7,9.2,49,0.00,,,0.01,WeatherDisplay:10.37,2013-05-12 01:47:00,
2013-05-11 20:52:00,47.8,29.5,30.08,NW,323,6.6,10.4,49,0.00,,,0.01,WeatherDisplay:10.37,2013-05-12 01:52:00,
2013-05-11 20:57:00,47.7,29.5,30.07,NW,313,5.3,8.1,49,0.00,,,0.01,WeatherDisplay:10.37,2013-05-12 01:57:00,
2013-05-11 21:02:00,47.5,29.3,30.08,NNW,333,4.8,6.9,49,0.00,,,0.01,WeatherDisplay:10.37,2013-05-12 02:02:00,
2013-05-11 21:07:00,47.2,29.0,30.08,WNW,302,6.6,7.0,49,0.00,,,0.01,WeatherDisplay:10.37,2013-05-12 02:07:00,
2013-05-11 21:12:00,47.4,29.2,30.08,NW,325,5.0,5.8,49,0.00,,,0.01,WeatherDisplay:10.37,2013-05-12 02:12:00,
2013-05-11 21:17:00,47.0,29.8,30.08,NW,311,4.3,5.8,51,0.00,,,0.01,WeatherDisplay:10.37,2013-05-12 02:17:00,
2013-05-11 21:22:00,46.5,29.8,30.08,NW,313,4.5,6.9,52,0.00,,,0.01,WeatherDisplay:10.37,2013-05-12 02:22:00,
2013-05-11 21:27:00,46.0,30.3,30.08,NW,312,3.5,4.0,54,0.00,,,0.01,WeatherDisplay:10.37,2013-05-12 02:27:00,
2013-05-11 21:32:00,45.4,30.6,30.08,NW,321,3.6,4.0,56,0.00,,,0.01,WeatherDisplay:10.37,2013-05-12 02:32:00,
2013-05-11 21:37:00,45.2,30.4,30.08,WNW,302,5.3,6.0,56,0.00,,,0.01,WeatherDisplay:10.37,2013-05-12 02:37:00,
2013-05-11 21:42:00,45.5,30.7,30.08,NW,314,5.4,6.9,56,0.00,,,0.01,WeatherDisplay:10.37,2013-05-12 02:42:00,
2013-05-11 21:47:00,45.5,31.1,30.09,NW,317,4.8,6.0,57,0.00,,,0.01,WeatherDisplay:10.37,2013-05-12 02:47:00,
2013-05-11 21:52:00,45.2,30.9,30.09,NW,316,4.4,5.0,57,0.00,,,0.01,WeatherDisplay:10.37,2013-05-12 02:52:00,
2013-05-11 21:57:00,45.0,31.1,30.09,NW,309,4.1,5.0,58,0.00,,,0.01,WeatherDisplay:10.37,2013-05-12 02:57:00,
2013-05-11 22:02:00,44.7,30.8,30.09,NW,316,4.5,5.8,58,0.00,CLR,,0.01,WeatherDisplay:10.37,2013-05-12 03:02:00,
2013-05-11 22:08:00,44.7,30.4,30.09,NW,320,5.0,8.1,57,0.00,CLR,,0.01,WeatherDisplay:10.37,2013-05-12 03:08:00,
2013-05-11 22:13:00,44.7,30.4,30.09,NNW,341,3.6,5.8,57,0.00,CLR,,0.01,WeatherDisplay:10.37,2013-05-12 03:13:00,
2013-05-11 22:18:00,44.7,30.4,30.09,NW,315,4.6,5.0,57,0.00,CLR,,0.01,WeatherDisplay:10.37,2013-05-12 03:18:00,
2013-05-11 22:23:00,44.9,30.1,30.09,NW,316,5.9,6.9,56,0.00,CLR,,0.01,WeatherDisplay:10.37,2013-05-12 03:23:00,
2013-05-11 22:28:00,44.9,30.1,30.09,NNW,341,5.6,5.8,56,0.00,CLR,,0.01,WeatherDisplay:10.37,2013-05-12 03:28:00,
2013-05-11 22:33:00,45.1,30.3,30.09,NW,313,6.3,8.1,56,0.00,CLR,,0.01,WeatherDisplay:10.37,2013-05-12 03:33:00,
2013-05-11 22:38:00,45.5,30.3,30.10,NNW,338,6.4,8.1,55,0.00,CLR,,0.01,WeatherDisplay:10.37,2013-05-12 03:38:00,
2013-05-11 22:43:00,45.7,29.5,30.10,NW,319,5.9,9.2,53,0.00,CLR,,0.01,WeatherDisplay:10.37,2013-05-12 03:43:00,
2013-05-11 22:48:00,45.8,29.2,30.10,NW,307,7.8,11.5,52,0.00,CLR,,0.01,WeatherDisplay:10.37,2013-05-12 03:48:00,
2013-05-11 22:53:00,45.8,29.6,30.10,WNW,302,5.5,9.2,53,0.00,CLR,,0.01,WeatherDisplay:10.37,2013-05-12 03:53:00,
2013-05-11 22:58:00,45.8,29.6,30.10,ENE,69,5.5,7.0,53,0.00,CLR,,0.01,WeatherDisplay:10.37,2013-05-12 03:58:00,
2013-05-11 23:01:00,45.8,29.6,30.10,NW,322,4.3,6.9,53,0.00,,,0.01,WeatherDisplay:10.37,2013-05-12 04:01:00,
2013-05-11 23:02:00,45.7,30.0,30.10,NNW,334,3.9,8.1,54,0.00,,,0.01,WeatherDisplay:10.37,2013-05-12 04:02:00,
2013-05-11 23:07:00,45.5,30.7,30.10,NNW,342,3.3,4.6,56,0.00,,,0.01,WeatherDisplay:10.37,2013-05-12 04:07:00,
2013-05-11 23:12:00,45.2,30.4,30.10,NW,318,3.8,5.8,56,0.00,,,0.01,WeatherDisplay:10.37,2013-05-12 04:12:00,
2013-05-11 23:17:00,45.0,30.2,30.10,NW,313,4.9,5.8,56,0.00,,,0.01,WeatherDisplay:10.37,2013-05-12 04:17:00,
2013-05-11 23:22:00,45.0,30.7,30.10,North,354,3.8,5.0,57,0.00,,,0.01,WeatherDisplay:10.37,2013-05-12 04:22:00,
2013-05-11 23:27:00,44.8,30.9,30.10,NW,325,3.8,6.9,58,0.00,,,0.01,WeatherDisplay:10.37,2013-05-12 04:27:00,
2013-05-11 23:32:00,44.7,30.8,30.10,NW,316,4.3,6.9,58,0.00,,,0.01,WeatherDisplay:10.37,2013-05-12 04:32:00,
2013-05-11 23:37:00,44.5,30.6,30.10,North,8,4.4,6.9,58,0.00,,,0.01,WeatherDisplay:10.37,2013-05-12 04:37:00,
2013-05-11 23:42:00,44.2,31.2,30.11,NW,316,3.4,3.5,60,0.00,,,0.01,WeatherDisplay:10.37,2013-05-12 04:42:00,
2013-05-11 23:47:00,43.9,30.9,30.11,North,350,3.6,4.6,60,0.00,,,0.01,WeatherDisplay:10.37,2013-05-12 04:47:00,
2013-05-11 23:52:00,43.9,30.9,30.11,NW,318,4.2,5.8,60,0.00,,,0.01,WeatherDisplay:10.37,2013-05-12 04:52:00,
2013-05-11 23:57:00,44.0,31.4,30.11,North,351,3.7,5.0,61,0.00,,,0.01,WeatherDisplay:10.37,2013-05-12 04:57:00,